Weather History for Cut Bank, MT

Change the Weather History Date:

Sunday, November 11, 2012

  Actual Average Record
Temperature  
Mean Temperature 4 °F 32 °F  
Max Temperature 25 °F 43 °F 65 °F (1928)
Min Temperature -17 °F 22 °F -22 °F (1911)
Degree Days  
Heating Degree Days 61 33  
Month to date heating degree days 358 339  
Since 1 July heating degree days 1529 1563  
Cooling Degree Days 0 0  
Month to date cooling degree days 0 0  
Year to date cooling degree days 210 162  
Moisture  
Dew Point -4 °F    
Average Humidity 80    
Maximum Humidity 92    
Minimum Humidity 68    
Precipitation  
Precipitation 0.00 in 0.01 in 0.23 in (1959)
Month to date precipitation 0.04 0.13  
Year to date precipitation 8.29 10.45  
Snow  
Snow 0.00 in - - ()
Snow Depth 5.00 in    
Sea Level Pressure  
Sea Level Pressure 30.10 in    
Wind  
Wind Speed 19 mph (WNW)    
Max Wind Speed 39 mph    
Max Gust Speed 46 mph    
Visibility 7 miles    
Events Fog    
T = Trace of Precipitation, MM = Missing Value Source: NWS Daily Summary

Daily Weather History Graph

Daily Weather History Graph

Search for Another Location

Airport:

Trip Planner

Search our weather history database for the weather conditions in past years. The results will help you decide how hot, cold, wet, or windy it might be!

Date:

Astronomy

Nov. 11, 2012 Rise Set
Actual Time 7:32 AM MST 4:54 PM MST
Civil Twilight 6:58 AM MST 5:28 PM MST
Nautical Twilight 6:20 AM MST 6:06 PM MST
Astronomical Twilight 5:43 AM MST 6:42 PM MST
Moon 4:40 AM MST (11/11) 3:27 PM MST (11/11)
Length of Visible Light 10h 29m
Length of Day
9h 21m
Waning Crescent, 7% of the Moon is Illuminated
Nov 11
Waning Crescent
Nov 13
New
Nov 20
First Quarter
Nov 28
Full
Dec 6
Last Quarter

Hourly Weather History & Observations

Time (MST) Temp. Windchill Dew Point Humidity Pressure Visibility Wind Dir Wind Speed Gust Speed Precip Events Conditions
12:29 AM -11.2 °F -23.0 °F -14.8 °F 84% 29.94 in 1.8 mi North 4.6 mph - N/A   Clear
12:39 AM -13.0 °F -25.1 °F -16.6 °F 84% 29.94 in 3.0 mi North 4.6 mph - N/A   Clear
12:56 AM -13.0 °F -22.7 °F -17.0 °F 82% 30.22 in 7.0 mi NNW 3.5 mph - N/A   Clear
1:56 AM -14.1 °F -28.3 °F -18.0 °F 82% 30.22 in 10.0 mi North 5.8 mph - N/A   Clear
2:16 AM -13.0 °F -22.7 °F -16.6 °F 84% 29.94 in 1.8 mi NW 3.5 mph - N/A   Partly Cloudy
2:29 AM -14.8 °F - -16.6 °F 92% 29.94 in 2.0 mi Calm Calm - N/A   Mostly Cloudy
2:56 AM -14.1 °F - -16.1 °F 91% 30.22 in 2.5 mi Calm Calm - N/A   Overcast
3:05 AM -14.8 °F - -16.6 °F 92% 29.94 in 1.0 mi Calm Calm - N/A   Mist
3:13 AM -13.0 °F - -16.6 °F 84% 29.93 in 0.5 mi Calm Calm - N/A Fog Light Freezing Fog
3:42 AM -13.0 °F - -16.6 °F 84% 29.93 in 0.2 mi Calm Calm - N/A Fog Light Freezing Fog
3:56 AM -11.9 °F - -14.1 °F 90% 30.20 in 0.5 mi Calm Calm - N/A Fog Light Freezing Fog
4:13 AM -14.8 °F -24.8 °F -18.4 °F 84% 29.93 in 2.0 mi NW 3.5 mph - N/A   Overcast
4:21 AM -14.8 °F -24.8 °F -18.4 °F 84% 29.93 in 10.0 mi NNW 3.5 mph - N/A   Overcast
4:48 AM -13.0 °F -28.6 °F -18.4 °F 77% 29.93 in 10.0 mi NNW 6.9 mph - N/A   Unknown
4:56 AM -14.1 °F -23.9 °F -18.0 °F 82% 30.23 in 10.0 mi WNW 3.5 mph - N/A   Unknown
5:18 AM -14.8 °F -29.1 °F -18.4 °F 84% 29.93 in 10.0 mi NW 5.8 mph - N/A   Partly Cloudy
5:56 AM -16.1 °F -28.6 °F -20.9 °F 79% 30.24 in 10.0 mi North 4.6 mph - N/A   Clear
6:56 AM -15.0 °F -31.0 °F -20.0 °F 78% 30.25 in 10.0 mi North 6.9 mph - N/A   Clear
7:56 AM -9.0 °F -27.4 °F -14.1 °F 79% 30.24 in 10.0 mi NNW 10.4 mph - N/A   Clear
8:56 AM -7.1 °F -21.4 °F -13.0 °F 75% 30.23 in 10.0 mi North 6.9 mph - N/A   Clear
9:56 AM 1.0 °F -6.7 °F -4.0 °F 79% 30.22 in 10.0 mi Variable 3.5 mph - N/A   Clear
10:56 AM 21.9 °F 5.8 °F 12.9 °F 68% 30.17 in 10.0 mi West 23.0 mph 29.9 mph N/A   Clear
11:56 AM 23.0 °F 6.9 °F 15.1 °F 72% 30.16 in 10.0 mi WSW 24.2 mph 28.8 mph N/A   Clear
12:56 PM 24.8 °F 8.4 °F 15.8 °F 69% 29.94 in 10.0 mi West 27.6 mph 33.4 mph N/A   Clear
1:56 PM 24.1 °F 7.7 °F 15.1 °F 69% 30.17 in 10.0 mi West 26.5 mph - N/A   Clear
2:56 PM 23.0 °F 6.6 °F 16.0 °F 74% 30.17 in 9.0 mi West 25.3 mph - N/A   Clear
3:56 PM 21.9 °F 4.5 °F 14.0 °F 72% 30.19 in 10.0 mi WSW 27.6 mph - N/A   Clear
4:56 PM 21.9 °F 3.7 °F 15.1 °F 75% 30.19 in 6.0 mi WSW 31.1 mph 36.8 mph N/A   Haze
5:56 PM 21.9 °F 4.2 °F 14.0 °F 72% 30.22 in 9.0 mi WSW 28.8 mph 36.8 mph N/A   Clear
6:56 PM 21.9 °F 4.2 °F 15.1 °F 75% 30.21 in 9.0 mi West 28.8 mph 35.7 mph N/A   Clear
7:56 PM 23.0 °F 4.9 °F 15.1 °F 72% 30.19 in 7.0 mi West 32.2 mph - N/A   Clear
8:56 PM 24.1 °F 6.1 °F 15.1 °F 69% 30.19 in 6.0 mi West 33.4 mph 40.3 mph N/A   Haze
9:56 PM 24.1 °F 5.6 °F 16.0 °F 71% 30.15 in 3.0 mi West 35.7 mph 46.0 mph N/A   Haze
10:56 PM 25.0 °F 6.6 °F 17.1 °F 72% 30.09 in 7.0 mi WSW 36.8 mph 42.6 mph N/A   Clear
11:56 PM 24.8 °F 8.7 °F 17.6 °F 74% 29.98 in 10.0 mi West 26.5 mph - N/A   Clear